Regional Weather Roundup
Issued by NWS

Home | Current Version | Previous Version | Text Only | Print | Product List | Glossary On
Versions: 1 2 3 4 5 6 7 8 9 10 11 12 13 14 15 16 17 18 19 20 21 22 23 24 25 26 27 28 29 30 31 32 33 34 35 36 37 38 39 40 41 42 43 44 45 46 47 48 49 50
000
ASUS44 KOUN 212200
RWROK

WEATHER ROUNDUP FOR OKLAHOMA
NATIONAL WEATHER SERVICE NORMAN OK
500 PM CDT TUE OCT 21 2014

NOTE: "FAIR" INDICATES FEW OR NO CLOUDS BELOW 12,000 FEET WITH NO
      SIGNIFICANT WEATHER AND/OR OBSTRUCTIONS TO VISIBILITY.

OKZ001>007-009>012-014-015-017-212300-
NORTHWEST OKLAHOMA AND THE PANHANDLE

CITY           SKY/WX    TMP DP  RH WIND       PRES   REMARKS
GAGE           PTSUNNY   79  53  40 S13       30.01F
ENID/WOODRING  MOSUNNY   82  57  42 S9        29.99F
$$

OKZ016-021>023-033>039-044-045-212300-
SOUTHWEST OKLAHOMA

CITY           SKY/WX    TMP DP  RH WIND       PRES   REMARKS
LAWTON/REGL    MOSUNNY   82  54  37 SE7       30.02S
LAWTON/FT SILL MOSUNNY   81  56  42 S10       30.01S
FREDERICK      SUNNY     82  49  31 S9        29.99S
CLINTON        MOSUNNY   80  53  39 S10       30.04S
HOBART         MOSUNNY   81  53  37 S14       30.03S
$$

OKZ018>020-024>031-212300-
CENTRAL OKLAHOMA

CITY           SKY/WX    TMP DP  RH WIND       PRES   REMARKS
OKLAHOMA CITY  MOSUNNY   81  56  42 SE14      30.02F
OKC/WILEY POST SUNNY     81  57  43 S13       30.02F
OKC/TINKER AFB SUNNY     81  56  41 S10       30.02F
STILLWATER     PTSUNNY   84  58  40 SE9       30.01F
GUTHRIE        MOSUNNY   83  57  41 SE7       30.01F
$$

OKZ008-013-054>072-212300-
NORTHEAST OKLAHOMA

CITY           SKY/WX    TMP DP  RH WIND       PRES   REMARKS
TULSA          MOSUNNY   81  62  52 VRB6      30.01F
TULSA/JONES    SUNNY     81  61  50 VRB3      30.02F
PONCA CITY     SUNNY     82  58  43 SE8       30.00F
BARTLESVILLE   SUNNY     78  60  53 SE5       30.04F
MUSKOGEE       SUNNY     77  61  57 NE3       30.04F
$$

OKZ032-040>043-046>053-073>077-212300-
SOUTH CENTRAL/SOUTHEAST OKLAHOMA

CITY           SKY/WX    TMP DP  RH WIND       PRES   REMARKS
MCALESTER      SUNNY     80  60  50 VRB3      30.04S
$$




USA.gov is the U.S. government's official web portal to all federal, state and local government web resources and services.